User: anonymous   Login
Location: Brno
(49.2000°N, 16.6330°E)
Time: 05:03:47
(UTC+02:00)
Language:

ISS - Orbit

View from above orbital plane
View from above orbital plane
View from above satellite
View from above satellite

Ground track
Ground track

The orbit data is extracted from the following two-line orbital elements,

1 25544U 98067A   14295.85597193  .00020498  00000-0  35667-3 0  2815
2 25544 051.6470 186.7382 0002358 288.3118 161.5081 15.50748656911133
Epoch (UTC): 22 October 2014 20:32:35
Eccentricity: 0.0002358
inclination: 51.6470°
perigee height: 413 km
apogee height: 416 km
right ascension of ascending node: 186.7382°
argument of perigee: 288.3118°
revolutions per day: 15.50748656
mean anomaly at epoch: 161.5081°
orbit number at epoch: 91113

The dashed part of the orbit path shows where the satellite is in the earth's shadow,  

DLR